AirNav   Pilot Hours Calculator
 
 360 users online  

21OR KATU Heliport
Portland, Oregon, USA

GOING TO PORTLAND?


FAA INFORMATION EFFECTIVE 03 DECEMBER 2020

Location

FAA Identifier: 21OR
Lat/Long: 45-31-37.4260N 122-38-38.3430W
45-31.623767N 122-38.639050W
45.5270628,-122.6439842
(estimated)
Elevation: 160 ft. / 49 m (estimated)
Variation: 19E (1985)
From city: 3 miles N of PORTLAND, OR
Time zone: UTC -8 (UTC -7 during Daylight Saving Time)
Zip code: 97232

Heliport Operations

Heliport use: Private use. Permission required prior to landing
Activation date: 03/1982
Control tower: no
ARTCC: SEATTLE CENTER
FSS: MC MINNVILLE FLIGHT SERVICE STATION
Attendance: UNATNDD
Wind indicator: lighted
Segmented circle: no
Lights: FOR HELIPAD LGTS PHONE 503-231-8853.

Heliport Communications

WX ASOS at PDX (4 nm NE): PHONE (503) 493-7687
WX ASOS at VUO (6 nm N): 135.125 (360-696-1280)
WX ASOS at TTD (10 nm E): 135.625 (503-492-2887)
WX ASOS at HIO (13 nm W): 127.65 (503-640-2984)
WX ASOS at SPB (17 nm NW): 135.875 (503-543-6401)
WX ASOS at UAO (18 nm S): PHONE 503-678-3011

Nearby radio navigation aids

VOR radial/distance  VOR name  Freq  Var
BTGr168/13.4BATTLE GROUND VORTAC116.6021E
UBGr032/17.5NEWBERG VOR/DME117.4021E

 
NDB name  Hdg/Dist  Freq  Var  ID
BANKS094/18.035616EPND .--. -. -..

Heliport Services

Runway Information

Helipad H1

Dimensions: 46 x 46 ft. / 14 x 14 m
Surface: concrete, in fair condition
Latitude: 45-31.623767N
Longitude: 122-38.639050W
Elevation: 160.0 ft.
Traffic pattern: leftleft

Heliport Ownership and Management from official FAA records

Ownership: Privately-owned
Owner: FISHER BROADCASTING INC.
2153 N E SANDY BLVD
PORTLAND, OR 97232
Phone 503-231-4222
Manager: TIM ONDRACEK
2153 NE SANDY BLVD
PORTLAND, OR 97232
Phone (503) 231-4256

Additional Remarks

A40 RWY H1 - FLOODLIGHTS.
A52-H1 50' STACK 750' NW; 20' POLE 325 NE; 40' ANT 1000' NW.
A33 RWY H1 - ROOFTOP.
FOR CD CTC PORTLAND APCH AT 503-493-7545.

Instrument Procedures

There are no published instrument procedures at 21OR.

Some nearby airports with instrument procedures:

KPDX - Portland International Airport (4 nm NE)
KVUO - Pearson Field Airport (6 nm N)
KTTD - Portland-Troutdale Airport (10 nm E)
KHIO - Portland-Hillsboro Airport (13 nm W)
KSPB - Scappoose Industrial Airpark (17 nm NW)
KUAO - Aurora State Airport (18 nm S)
 
Loc | Ops | Rwys | IFR | FBO | Links
Com | Nav | Svcs | Stats | Notes
Area around 21OR (KATU Heliport)
 
Road maps at: MapQuest Bing Google
 
Aerial photo
WARNING: Photo may not be current or correct
Aerial photo of 21OR (KATU Heliport)
Do you have a better or more recent aerial photo of KATU Heliport that you would like to share? If so, please send us your photo.

 
Sectional chart

 
Airport distance calculator
Flying to KATU Heliport? Find the distance to fly.

From to 21OR

Sunrise and sunset
Times for 04-Dec-2020
 Local
(UTC-8)
 Zulu
(UTC)
Morning civil twilight07:0215:02
Sunrise07:3615:36
Sunset16:2700:27
Evening civil twilight17:0001:00

Current date and time
Zulu (UTC)  04-Dec-2020 10:37:16
Local (UTC-8)  04-Dec-2020 02:37:16
 
METAR
KPDX 
4nm NE 
040953Z 00000KT 10SM CLR M01/M02 A3049 RMK AO2 SLP322 T10061022
KVUO 
5nm N 
040953Z AUTO 00000KT 5SM HZ CLR 00/M03 A3048 RMK AO2 SLP321 T00001033
KTTD 
10nm E 
040953Z AUTO 09010KT 10SM CLR 04/01 A3048 RMK AO2 SLP320 T00440006
KHIO 
13nm W 
040953Z AUTO 00000KT 9SM CLR M01/M01 A3047 RMK AO2 SLP319 T10111011
KSPB 
17nm NW 
040953Z AUTO 27003KT 10SM CLR M01/M01 A3048 RMK AO2 SLP319 T10061011
KUAO 
17nm S 
040953Z AUTO 08003KT 9SM CLR 02/00 A3047 RMK AO2 SLP320 T00170000
TAF
KPDX 
4nm NE 
040855Z 0409/0506 00000KT P6SM SKC FM041400 12005KT P6SM SKC FM042200 10011G22KT P6SM SKC
KTTD 
10nm E 
040524Z 0406/0506 08015G25KT P6SM BKN045 BKN200 FM041400 09015G25KT P6SM SCT045 FM042000 09020G30KT P6SM SCT250 FM050000 09026G35KT P6SM SCT250
KHIO 
13nm W 
040524Z 0406/0506 00000KT P6SM BKN045 FM041000 00000KT 4SM BR SCT002 BKN045 FM041500 00000KT P6SM SCT045 FM042000 07007KT P6SM SCT250
KUAO 
17nm S 
040524Z 0406/0506 00000KT P6SM BKN045 FM041000 00000KT 5SM BR SCT002 BKN045 FM041400 02006KT P6SM SCT045 FM042000 02010KT P6SM SCT250
NOTAMs
Click for the latest NOTAMs
NOTAMs are issued by the DoD/FAA and will open in a separate window not controlled by AirNav.

 

 
 

Would you like to see your business listed on this page?

 If your business provides an interesting product or service to pilots, flight crews, aircraft, or users of the KATU Heliport, you should consider listing it here.  To start the listing process, click on the button below
 
Add a business
 

Other Pages about KATU Heliport

Update a link
 
Copyright © AirNav, LLC. All rights reserved. Privacy Policy  Contact